User: anonymous   Login
Location: Splawn
(30.9202°N, 96.9858°W)
Time: 12:58:12
(UTC+00:00)
Language:

S-56A Canister/Altair - Orbit

View from above orbital plane
View from above orbital plane
View from above satellite
View from above satellite

Ground track
Ground track

The orbit data is extracted from the following two-line orbital elements,

1    82U 61004B   20051.67244262 -.00000002 +00000-0 +23026-4 0  9992
2    82 038.8614 274.4971 1174794 235.1632 113.2997 12.26060640793357
Epoch (UTC): 20 February 2020 16:08:19
Eccentricity: 0.1174794
inclination: 38.8614°
perigee height: 633 km
apogee height: 2499 km
right ascension of ascending node: 274.4971°
argument of perigee: 235.1632°
revolutions per day: 12.26060640
mean anomaly at epoch: 113.2997°
orbit number at epoch: 79335

The dashed part of the orbit path shows where the satellite is in the earth's shadow,  

DLR